Home   Weather   Corrientes   Past weeks

Flag for Argentina Past Weather in Corrientes, Corrientes, Argentina — Yesterday and Last 2 Weeks

Now
68 °F

Passing clouds.


Feels Like: 68 °F
Forecast: 49 / 71 °F
Wind: 7 mph from East

Location: Resistencia Aero.

Current Time: Apr 28, 2017 at 1:23:43 pm

Latest Report: Apr 28, 2017 at 12:00 pm


Visibility: N/A

Pressure: 30.21 "Hg

Humidity: 43%

Dew Point: 45 °F

Location of CorrientesLocation

Past Weather in Corrientes — Graph

°F

Corrientes Temperature Yesterday

Maximum temperature yesterday: 73 °F (at 2:00 pm)
Minimum temperature yesterday: 48 °F (at 6:00 am)
Average temperature yesterday: 60 °F

High & Low Weather Summary for the Past Weeks

 TemperatureHumidityPressure
High79 °F (Apr 14, 2:00 pm)100% (Apr 14, 2:00 am)32.49 "Hg (Apr 14, 2:00 am)
Low48 °F (Apr 27, 6:00 am)27% (Apr 27, 2:00 pm)29.50 "Hg (Apr 25, 4:00 pm)
Average67 °F85%29.94 "Hg
* Reported Apr 13 12:00 pm — Apr 28 12:00 pm, Corrientes, Weather by CustomWeather, © 2017

Note: Actual official high and low records may vary slightly from our data, if they occured in-between our weather recording intervals... More about our weather records

Advertising

Corrientes Weather History for the Previous 24 Hours

Scroll right to see more
 ConditionsComfort  
Time TempWeatherWind HumidityBarometerVisibility
12:00 pm
Fri, Apr 28
68 °FPassing clouds.7 mph43%30.21 "HgN/A
11:00 am66 °FSunny.7 mph56%30.21 "Hg10 mi
10:00 am63 °FSunny.7 mph68%30.21 "Hg10 mi
9:00 am57 °FSunny.3 mph88%30.18 "Hg10 mi
8:00 am52 °FFog.3 mph94%30.18 "HgN/A
7:00 am48 °FFog.2 mph100%30.18 "HgN/A
6:00 am48 °FFog.3 mph100%30.15 "Hg2 mi
5:00 am48 °FFog.2 mph100%30.15 "Hg2 mi
4:31 am50 °FFog.2 mph100%30.15 "Hg1 mi
4:00 am50 °FClear.2 mph100%30.15 "Hg4 mi
3:00 am52 °FClear.1 mph94%30.15 "Hg10 mi
2:00 am52 °FClear.3 mph94%30.15 "Hg10 mi
1:00 am54 °FClear.6 mph88%30.15 "Hg10 mi
12:00 am54 °FCool.No wind94%30.15 "HgN/A
11:00 pm
Thu, Apr 27
55 °FClear.3 mph88%30.15 "Hg5 mi
10:00 pm55 °FClear.5 mph88%30.12 "Hg5 mi
9:00 pm57 °FClear.3 mph88%30.12 "Hg4 mi
8:00 pm59 °FClear.3 mph77%30.12 "Hg4 mi
7:00 pm63 °FClear.3 mph64%30.09 "Hg10 mi
6:00 pm72 °FSunny.5 mph38%30.12 "Hg10 mi
5:00 pm73 °FSunny.5 mph31%30.12 "Hg10 mi
4:00 pm73 °FPassing clouds.5 mph27%30.12 "HgN/A
3:00 pm73 °FPassing clouds.6 mph29%30.12 "HgN/A
2:00 pm73 °FSunny.6 mph27%30.15 "Hg10 mi
1:00 pm72 °FPassing clouds.7 mph29%30.18 "HgN/A
Weather by CustomWeather, © 2017

See weather overviewHow to use our weather pages